Skip Page Navigation
NASA JPL Caltech
NASA Logo - Jet Propulsion Laboratory + View the NASA Portal
+ Center for Near-Earth Object Studies
JPL Home Earth Solar System Stars & Galaxies Technology
JPL Solar System Dynamics
BODIES ORBITS EPHEMERIDES TOOLS PHYSICAL DATA DISCOVERY FAQ SITE MAP
JPL Small-Body Database Browser
Search: [ help ]  
47995 (2000 YE133)
Classification: Main-belt Asteroid          SPK-ID: 2047995
Ephemeris | Orbit Diagram | Orbital Elements | Mission Design | Physical Parameters | Discovery Circumstances | Close-Approach Data ]

[ show orbit diagram ]
Orbital Elements at Epoch 2459000.5 (2020-May-31.0) TDB
Reference: JPL 33 (heliocentric ecliptic J2000)
 Element Value Uncertainty (1-sigma)   Units 
e .07624513315074251 3.6468e-08  
a 3.024549051352248 1.9197e-08 au
q 2.793941906210943 1.0683e-07 au
i 10.0008935155712 3.9939e-06 deg
node 161.6467381889302 2.1882e-05 deg
peri 84.34759495540079 3.3803e-05 deg
M 174.6317009764931 2.6185e-05 deg
tp 2458068.512776770744
(2017-Nov-11.01277677)
0.00013841 TDB
period 1921.274307507864
5.26
1.8292e-05
5.008e-08
d
yr
n .1873756384464255 1.7839e-09 deg/d
Q 3.255156196493552 2.0661e-08 au
  Orbit Determination Parameters
   # obs. used (total)      1623  
   data-arc span      8085 days (22.14 yr)  
   first obs. used      1998-09-24  
   last obs. used      2020-11-12  
   planetary ephem.      DE431  
   SB-pert. ephem.      SB431-N16  
   condition code      0  
   norm. resid. RMS      .52172  
   source      ORB  
   producer      Otto Matic  
   solution date      2020-Dec-18 03:49:22  

Additional Information
 Earth MOID = 1.80432 au 
 Jupiter MOID = 1.81073 au 
 T_jup = 3.218 
[ show covariance matrix ]

Ephemeris | Orbit Diagram | Orbital Elements | Mission Design | Physical Parameters | Discovery Circumstances | Close-Approach Data ]

Physical Parameter Table
Parameter Symbol Value Units Sigma Reference Notes
absolute magnitude H 13.4   n/a MPO351172  
diameter diameter 7.719 km 0.170 urn:nasa:pds:neowise_diameters_albedos::2.0[mainbelt] (http://adsabs.harvard.edu/abs/2011ApJ...741...68M)  
geometric albedo albedo 0.156   0.020 urn:nasa:pds:neowise_diameters_albedos::2.0[mainbelt] (http://adsabs.harvard.edu/abs/2011ApJ...741...68M)  

47995 (2000 YE133)          Discovered 2000-Dec-30 by LONEOS at Anderson Mesa
Reference: 20020921/Numbers.arcLast Updated: 2004-04-19

[ show close-approach data ]
Alternate Designations
 2000 YE133 = 1998 TV31 = 2000 AC183 
Ephemeris | Orbit Diagram | Orbital Elements | Mission Design | Physical Parameters | Discovery Circumstances | Close-Approach Data ]
ABOUT SSD CREDITS/AWARDS PRIVACY/COPYRIGHT GLOSSARY LINKS
FirstGov 2021-Jan-23 22:01 UT
(server date/time)  
NASA Home Page
Site Manager:   Ryan S. Park
Webmaster  Alan B. Chamberlin